Location: Sears
(37.7625°N, 100.1060°W)
Time: 04:52:43
(UTC+00:00)

X-37B - Pass Details

Date: 07 August 2021
Orbit: 381 x 393 km, 45.0° (Epoch: 29 August)

Event Time Altitude Azimuth Distance (km) Brightness Sun altitude
Exits shadow 08:42:22 12° 49° (NE) 1,295 4.0 -29.4°
Drops below altitude 10° 08:42:39 10° 51° (NE) 1,397 4.2 -29.4°
Sets 08:44:48 0° 60° (ENE) 2,251 5.4 -29.2°
